Weather History for Bay City, TX

Change the Weather History Date:

Tuesday, December 11, 2012

  Actual Average (KLBX) Record (KLBX)
Temperature  
Mean Temperature 45 °F -  
Max Temperature 57 °F 62 °F 80 °F (2007)
Min Temperature 33 °F 45 °F 30 °F (2008)
Degree Days  
Heating Degree Days 20    
Moisture  
Dew Point 29 °F    
Average Humidity 58    
Maximum Humidity 82    
Minimum Humidity 29    
Precipitation  
Precipitation 0.00 in - - ()
Sea Level Pressure  
Sea Level Pressure 30.14 in    
Wind  
Wind Speed 6 mph (North)    
Max Wind Speed 9 mph    
Max Gust Speed -    
Visibility 10 miles    
Events      
Averages and records for this station are not official NWS values.
T = Trace of Precipitation, MM = Missing Value Source: NWS Daily Summary

Daily Weather History Graph

Daily Weather History Graph

Search for Another Location

Airport:

Trip Planner

Search our weather history database for the weather conditions in past years. The results will help you decide how hot, cold, wet, or windy it might be!

Date:

Astronomy

Dec. 11, 2012 Rise Set
Actual Time 7:07 AM CST 5:26 PM CST
Civil Twilight 6:41 AM CST 5:52 PM CST
Nautical Twilight 6:11 AM CST 6:22 PM CST
Astronomical Twilight 5:42 AM CST 6:51 PM CST
Moon 5:07 AM CST (12/11) 4:03 PM CST (12/11)
Length of Visible Light 11h 11m
Length of Day
10h 19m
Waning Crescent, 4% of the Moon is Illuminated
Dec 11
Waning Crescent
Dec 13
New
Dec 19
First Quarter
Dec 28
Full
Jan 4
Last Quarter

Hourly Weather History & Observations

Time (CST) Temp. Windchill Dew Point Humidity Pressure Visibility Wind Dir Wind Speed Gust Speed Precip Events Conditions
12:15 AM 39.2 °F 33.6 °F 28.4 °F 65% 30.12 in 10.0 mi NNW 8.1 mph - N/A   Clear
12:35 AM 39.9 °F 35.1 °F 28.4 °F 63% 30.12 in 10.0 mi NNW 6.9 mph - N/A   Clear
12:55 AM 39.2 °F 33.6 °F 28.4 °F 65% 30.12 in 10.0 mi North 8.1 mph - N/A   Clear
1:15 AM 39.0 °F 33.4 °F 28.4 °F 66% 30.12 in 10.0 mi North 8.1 mph - N/A   Clear
1:35 AM 38.7 °F 32.4 °F 28.2 °F 66% 30.11 in 10.0 mi North 9.2 mph - N/A   Clear
1:55 AM 38.3 °F 31.9 °F 27.9 °F 66% 30.11 in 10.0 mi North 9.2 mph - N/A   Clear
2:15 AM 38.5 °F 32.7 °F 27.5 °F 65% 30.11 in 10.0 mi North 8.1 mph - N/A   Clear
2:35 AM 38.3 °F 33.9 °F 27.5 °F 65% 30.11 in 10.0 mi North 5.8 mph - N/A   Clear
2:55 AM 37.6 °F 33.1 °F 27.5 °F 67% 30.11 in 10.0 mi North 5.8 mph - N/A   Clear
3:15 AM 36.5 °F 31.0 °F 27.7 °F 70% 30.11 in 10.0 mi North 6.9 mph - N/A   Clear
3:35 AM 35.8 °F 30.9 °F 27.9 °F 73% 30.11 in 10.0 mi North 5.8 mph - N/A   Clear
3:55 AM 35.1 °F 29.3 °F 27.9 °F 75% 30.11 in 10.0 mi North 6.9 mph - N/A   Clear
4:15 AM 34.9 °F 29.9 °F 27.9 °F 76% 30.12 in 10.0 mi North 5.8 mph - N/A   Clear
4:35 AM 34.5 °F 29.4 °F 27.9 °F 77% 30.12 in 10.0 mi North 5.8 mph - N/A   Clear
4:55 AM 34.2 °F 30.0 °F 28.0 °F 78% 30.12 in 10.0 mi NNE 4.6 mph - N/A   Clear
5:15 AM 33.8 °F 29.6 °F 28.0 °F 79% 30.12 in 10.0 mi North 4.6 mph - N/A   Clear
5:35 AM 33.3 °F 27.1 °F 28.0 °F 81% 30.12 in 10.0 mi North 6.9 mph - N/A   Clear
5:55 AM 33.1 °F 26.9 °F 28.2 °F 82% 30.12 in 10.0 mi North 6.9 mph - N/A   Clear
6:15 AM 33.8 °F 27.0 °F 28.2 °F 80% 30.13 in 10.0 mi North 8.1 mph - N/A   Clear
6:35 AM 34.0 °F 28.0 °F 28.2 °F 79% 30.14 in 10.0 mi North 6.9 mph - N/A   Clear
6:55 AM 33.6 °F 28.4 °F 28.0 °F 80% 30.13 in 10.0 mi North 5.8 mph - N/A   Clear
7:15 AM 33.4 °F 27.3 °F 28.2 °F 81% 30.14 in 10.0 mi North 6.9 mph - N/A   Clear
7:35 AM 35.1 °F 27.9 °F 28.8 °F 78% 30.14 in 10.0 mi North 9.2 mph - N/A   Clear
7:55 AM 36.5 °F 30.3 °F 28.9 °F 74% 30.14 in 10.0 mi North 8.1 mph - N/A   Clear
8:15 AM 37.6 °F 32.3 °F 28.9 °F 71% 30.14 in 10.0 mi NNE 6.9 mph - N/A   Clear
8:35 AM 39.0 °F 33.4 °F 28.6 °F 66% 30.15 in 10.0 mi NNE 8.1 mph - N/A   Clear
8:55 AM 40.5 °F 35.8 °F 29.1 °F 64% 30.16 in 10.0 mi NNE 6.9 mph - N/A   Clear
9:15 AM 42.1 °F 36.6 °F 28.6 °F 59% 30.17 in 10.0 mi NNE 9.2 mph - N/A   Clear
9:35 AM 41.0 °F 35.2 °F 28.4 °F 61% 30.17 in 10.0 mi NNE 9.2 mph - N/A   Clear
9:55 AM 43.9 °F 41.3 °F 28.9 °F 56% 30.18 in 10.0 mi NNE 4.6 mph - N/A   Clear
10:15 AM 47.7 °F - 29.1 °F 49% 30.17 in 10.0 mi NE 6.9 mph - N/A   Clear
10:35 AM 48.9 °F - 29.1 °F 46% 30.16 in 10.0 mi North 8.1 mph - N/A   Clear
10:55 AM 47.5 °F - 28.9 °F 49% 30.17 in 10.0 mi NNE 5.8 mph - N/A   Clear
11:15 AM 48.4 °F - 29.1 °F 47% 30.16 in 10.0 mi North 5.8 mph - N/A   Clear
11:35 AM 51.3 °F - 28.2 °F 41% 30.16 in 10.0 mi ENE 8.1 mph - N/A   Clear
11:55 AM 53.1 °F - 28.4 °F 39% 30.16 in 10.0 mi NNE 3.5 mph - N/A   Clear
12:15 PM 54.7 °F - 27.7 °F 35% 30.15 in 10.0 mi North 6.9 mph - N/A   Clear
12:35 PM 56.1 °F - 26.6 °F 32% 30.14 in 10.0 mi NNE 6.9 mph - N/A   Clear
12:55 PM 56.7 °F - 24.8 °F 29% 30.14 in 10.0 mi NNE 6.9 mph - N/A   Clear
1:15 PM 57.2 °F - 25.2 °F 29% 30.12 in 10.0 mi North 6.9 mph - N/A   Clear
1:35 PM 57.0 °F - 25.5 °F 30% 30.11 in 10.0 mi NNW 6.9 mph - N/A   Clear
1:55 PM 55.6 °F - 25.9 °F 32% 30.11 in 10.0 mi NNW 9.2 mph - N/A   Clear
2:15 PM 55.0 °F - 26.6 °F 33% 30.11 in 10.0 mi NNW 9.2 mph - N/A   Clear
2:35 PM 55.0 °F - 25.5 °F 32% 30.11 in 10.0 mi NE 4.6 mph - N/A   Scattered Clouds
2:55 PM 54.9 °F - 26.4 °F 33% 30.11 in 10.0 mi NNE 3.5 mph - N/A   Clear
3:15 PM 54.0 °F - 26.4 °F 35% 30.11 in 10.0 mi NE 3.5 mph - N/A   Mostly Cloudy
3:35 PM 54.1 °F - 26.8 °F 35% 30.11 in 10.0 mi Calm Calm - N/A   Scattered Clouds
3:55 PM 54.5 °F - 26.6 °F 34% 30.10 in 10.0 mi NE 4.6 mph - N/A   Clear
4:15 PM 54.0 °F - 27.0 °F 35% 30.11 in 10.0 mi Calm Calm - N/A   Scattered Clouds
4:35 PM 51.8 °F - 28.4 °F 41% 30.11 in 10.0 mi Calm Calm - N/A   Scattered Clouds
4:55 PM 52.7 °F - 28.0 °F 39% 30.11 in 10.0 mi North 3.5 mph - N/A   Clear
5:15 PM 50.9 °F - 26.4 °F 39% 30.12 in 10.0 mi North 3.5 mph - N/A   Clear
5:35 PM 49.3 °F - 28.4 °F 45% 30.12 in 10.0 mi Calm Calm - N/A   Clear
5:55 PM 48.4 °F - 29.7 °F 48% 30.13 in 10.0 mi North 3.5 mph - N/A   Clear
6:15 PM 48.4 °F - 28.8 °F 47% 30.13 in 10.0 mi Calm Calm - N/A   Clear
6:35 PM 48.2 °F - 28.4 °F 46% 30.14 in 10.0 mi Calm Calm - N/A   Mostly Cloudy
6:55 PM 47.5 °F - 31.1 °F 53% 30.15 in 10.0 mi Calm Calm - N/A   Overcast
7:15 PM 47.1 °F - 34.3 °F 61% 30.15 in 10.0 mi Calm Calm - N/A   Overcast
7:35 PM 46.4 °F - 35.6 °F 66% 30.16 in 10.0 mi Calm Calm - N/A   Mostly Cloudy
7:55 PM 47.1 °F - 35.1 °F 63% 30.16 in 10.0 mi Calm Calm - N/A   Scattered Clouds
8:15 PM 46.6 °F - 33.3 °F 60% 30.17 in 10.0 mi Calm Calm - N/A   Clear
8:35 PM 45.9 °F - 32.2 °F 59% 30.18 in 10.0 mi Calm Calm - N/A   Clear
8:55 PM 45.5 °F - 33.1 °F 62% 30.18 in 10.0 mi Calm Calm - N/A   Clear
9:15 PM 45.3 °F - 35.6 °F 69% 30.19 in 10.0 mi Calm Calm - N/A   Scattered Clouds
9:35 PM 45.5 °F - 33.4 °F 63% 30.20 in 10.0 mi Calm Calm - N/A   Overcast
9:55 PM 45.1 °F - 37.0 °F 73% 30.20 in 10.0 mi Calm Calm - N/A   Overcast
10:15 PM 44.6 °F - 38.1 °F 78% 30.21 in 10.0 mi Calm Calm - N/A   Mostly Cloudy
10:35 PM 44.2 °F - 36.1 °F 73% 30.22 in 10.0 mi Calm Calm - N/A   Mostly Cloudy
10:55 PM 44.6 °F - 34.0 °F 66% 30.22 in 10.0 mi Calm Calm - N/A   Scattered Clouds
11:15 PM 43.9 °F - 33.4 °F 67% 30.23 in 10.0 mi Calm Calm - N/A   Clear
11:35 PM 42.4 °F - 33.6 °F 71% 30.23 in 10.0 mi Calm Calm - N/A   Scattered Clouds
11:55 PM 39.4 °F - 33.4 °F 79% 30.22 in 10.0 mi Calm Calm - N/A   Scattered Clouds